Weather History for Great Falls, MT

Change the Weather History Date:

Friday, November 1, 2013

  Actual Average Record
Temperature  
Mean Temperature 42 °F 39 °F  
Max Temperature 53 °F 51 °F 74 °F (1895)
Min Temperature 31 °F 28 °F -12 °F (1991)
Degree Days  
Heating Degree Days 23 26  
Month to date heating degree days 23 26  
Since 1 July heating degree days 894 1046  
Cooling Degree Days 0 0  
Month to date cooling degree days 0 0  
Year to date cooling degree days 449 298  
Moisture  
Dew Point 27 °F    
Average Humidity 57    
Maximum Humidity 75    
Minimum Humidity 38    
Precipitation  
Precipitation 0.00 in 0.02 in 0.21 in (1957)
Month to date precipitation 0.00 0.02  
Year to date precipitation 10.66 13.63  
Snow  
Snow 0.00 in 0.20 in 3.80 in (1893)
Month to date snowfall 0.0 0.2  
Since 1 July snowfall 6.9 5.8  
Since 1 September snowfall 6.9 5.5  
Snow Depth T in    
Sea Level Pressure  
Sea Level Pressure 30.14 in    
Wind  
Wind Speed 13 mph (SW)    
Max Wind Speed 23 mph    
Max Gust Speed 30 mph    
Visibility 10 miles    
Events      
T = Trace of Precipitation, MM = Missing Value Source: NWS Daily Summary

Daily Weather History Graph

Daily Weather History Graph

Search for Another Location

Airport:

Trip Planner

Search our weather history database for the weather conditions in past years. The results will help you decide how hot, cold, wet, or windy it might be!

Date:

Astronomy

Nov. 01, 2013 Rise Set
Actual Time 8:09 AM MDT 6:07 PM MDT
Civil Twilight 7:37 AM MDT 6:39 PM MDT
Nautical Twilight 7:01 AM MDT 7:16 PM MDT
Astronomical Twilight 6:25 AM MDT 7:51 PM MDT
Moon 5:58 AM MDT (11/1) 5:08 PM MDT (11/1)
Length of Visible Light 11h 02m
Length of Day
9h 57m
Waning Crescent, 4% of the Moon is Illuminated
Nov 1
Waning Crescent
Nov 3
New
Nov 9
First Quarter
Nov 17
Full
Nov 25
Last Quarter

Hourly Weather History & Observations

Time (MDT) Temp. Windchill Dew Point Humidity Pressure Visibility Wind Dir Wind Speed Gust Speed Precip Events Conditions
12:53 AM 39.9 °F 31.8 °F 24.1 °F 53% 30.03 in 10.0 mi WSW 15.0 mph - N/A   Clear
1:53 AM 37.0 °F 29.3 °F 25.0 °F 62% 30.07 in 10.0 mi WSW 11.5 mph - N/A   Scattered Clouds
2:53 AM 39.0 °F 31.4 °F 24.1 °F 55% 30.08 in 10.0 mi WSW 12.7 mph - N/A   Overcast
3:53 AM 35.1 °F 29.3 °F 26.1 °F 70% 30.12 in 10.0 mi SW 6.9 mph - N/A   Overcast
4:53 AM 34.0 °F 25.5 °F 25.0 °F 70% 30.13 in 10.0 mi SW 11.5 mph - N/A   Partly Cloudy
5:53 AM 34.0 °F 26.0 °F 24.1 °F 67% 30.16 in 10.0 mi SSW 10.4 mph - N/A   Clear
6:53 AM 32.0 °F 23.6 °F 24.1 °F 73% 30.19 in 10.0 mi SW 10.4 mph - N/A   Clear
7:53 AM 33.1 °F 25.5 °F 25.0 °F 72% 30.18 in 10.0 mi SSW 9.2 mph - N/A   Clear
8:53 AM 35.1 °F 27.9 °F 27.0 °F 72% 30.19 in 10.0 mi SW 9.2 mph - N/A   Partly Cloudy
9:53 AM 41.0 °F 34.7 °F 28.9 °F 62% 30.19 in 10.0 mi SW 10.4 mph - N/A   Clear
10:53 AM 46.0 °F 40.2 °F 30.0 °F 54% 30.17 in 10.0 mi SW 12.7 mph - N/A   Clear
11:53 AM 50.0 °F - 30.9 °F 48% 30.14 in 10.0 mi SW 18.4 mph - N/A   Clear
12:53 PM 52.0 °F - 30.9 °F 45% 30.13 in 10.0 mi SW 20.7 mph 24.2 mph N/A   Clear
1:53 PM 52.0 °F - 28.0 °F 40% 30.12 in 10.0 mi WSW 21.9 mph 27.6 mph N/A   Clear
2:53 PM 53.1 °F - 28.0 °F 38% 30.10 in 10.0 mi WSW 19.6 mph 27.6 mph N/A   Clear
3:53 PM 52.0 °F - 27.0 °F 38% 30.12 in 10.0 mi WSW 18.4 mph 25.3 mph N/A   Clear
4:53 PM 50.0 °F - 26.1 °F 39% 30.14 in 10.0 mi WSW 17.3 mph 25.3 mph N/A   Clear
5:53 PM 45.0 °F 39.3 °F 27.0 °F 49% 30.16 in 10.0 mi WSW 11.5 mph - N/A   Clear
6:53 PM 39.9 °F 33.4 °F 27.0 °F 60% 30.18 in 10.0 mi SW 10.4 mph - N/A   Partly Cloudy
7:53 PM 37.9 °F 31.5 °F 27.0 °F 65% 30.19 in 10.0 mi WSW 9.2 mph - N/A   Clear
8:53 PM 35.1 °F 27.4 °F 26.1 °F 70% 30.19 in 10.0 mi WSW 10.4 mph - N/A   Clear
9:53 PM 33.1 °F 24.9 °F 26.1 °F 75% 30.17 in 10.0 mi SW 10.4 mph - N/A   Clear
10:53 PM 34.0 °F 26.6 °F 26.1 °F 73% 30.17 in 10.0 mi SW 9.2 mph - N/A   Clear
11:53 PM 35.1 °F 27.4 °F 26.1 °F 70% 30.12 in 10.0 mi SSW 10.4 mph - N/A   Clear